Home > Weather > Amarillo > Past weeks

Flag for USA Past Weather in Amarillo, Texas, USA — Yesterday and Last 2 Weeks

Now
75 °F

Sunny.


Feels Like: 77 °F
Forecast: 69 / 92 °F
Wind: 9 mph from Northwest

Location: Amarillo International Airport

Current Time: Jul 26, 2016 at 9:21:06 AM

Latest Report: Jul 26, 2016 at 8:53 AM


Visibility: 10 mi

Pressure: 29.98 "Hg (26.37 "Hg at 1117m altitude)

Humidity: 60%

Dew Point: 60 °F

Location of AmarilloLocation

Past Weather in Amarillo — Graph

°F

Amarillo Temperature Yesterday

Maximum temperature yesterday: 94 °F (at 1:53 PM)
Minimum temperature yesterday: 69 °F (at 6:53 AM)
Average temperature yesterday: 79 °F

High & Low Weather Summary for the Past Weeks

 TemperatureHumidityPressure
High107 °F (Jul 11, 2:53 PM)93% (Jul 15, 2:53 AM)30.12 "Hg (Jul 15, 2:53 AM)
Low64 °F (Jul 16, 6:53 AM)7% (Jul 11, 6:53 PM)29.52 "Hg (Jul 11, 6:53 PM)
Average84 °F45%29.89 "Hg
* Reported Jul 11 7:53 AM — Jul 26 7:53 AM, Amarillo, Weather by CustomWeather, © 2016

Note: Actual official high and low records may vary slightly from our data, if they occured in-between our weather recording intervals... More about our weather records

Advertising

Amarillo Weather History for the Previous 24 Hours

Scroll right to see more
 ConditionsComfort  
Time TempWeatherWind HumidityBarometerVisibility
7:53 AM
Tue, Jul 26
70 °FSunny.7 mph73%29.98 "Hg10 mi
6:53 AM66 °FClear.7 mph81%29.98 "Hg10 mi
5:53 AM67 °FClear.8 mph79%29.97 "Hg10 mi
4:53 AM68 °FClear.6 mph73%29.98 "Hg10 mi
3:53 AM69 °FClear.5 mph70%29.97 "Hg10 mi
2:53 AM70 °FClear.No wind68%29.98 "Hg10 mi
1:53 AM72 °FClear.8 mph64%29.95 "Hg10 mi
12:53 AM73 °FClear.7 mph62%29.96 "Hg10 mi
11:53 PM
Mon, Jul 25
75 °FClear.3 mph55%29.97 "Hg10 mi
10:53 PM77 °FClear.12 mph52%29.98 "Hg10 mi
9:53 PM76 °FSunny.3 mph58%29.95 "Hg10 mi
8:53 PM78 °FSunny.No wind56%29.94 "Hg10 mi
7:53 PM81 °FSunny.7 mph49%29.93 "Hg10 mi
6:53 PM81 °FSunny.9 mph53%29.93 "Hg10 mi
5:53 PM79 °FSunny.12 mph58%29.94 "Hg10 mi
4:53 PM76 °FSunny.13 mph62%29.96 "Hg10 mi
3:53 PM83 °FSunny.14 mph43%29.94 "Hg10 mi
2:59 PM79 °FPassing clouds.21 mph54%30.10 "Hg10 mi
2:53 PM80 °FThundershowers. Scattered clouds.23 mph51%29.95 "Hg10 mi
1:53 PM94 °FThundershowers. Sunny.13 mph37%29.93 "Hg10 mi
12:53 PM92 °FSunny.10 mph35%29.96 "Hg10 mi
11:53 AM88 °FSunny.No wind40%29.96 "Hg10 mi
10:53 AM87 °FSunny.3 mph43%29.96 "Hg10 mi
9:53 AM81 °FSunny.No wind54%29.98 "Hg10 mi
Weather by CustomWeather, © 2016

See weather overviewHow to use our weather pages